Weather History for Lorain / Elyria, OH

Change the Weather History Date:

Tuesday, July 23, 2013

  Actual Average (KCLE) Record (KCLE)
Temperature  
Mean Temperature 74 °F 74 °F  
Max Temperature 86 °F 83 °F 96 °F (1933)
Min Temperature 63 °F 65 °F 49 °F (1981)
Degree Days  
Heating Degree Days 0 0  
Month to date heating degree days 0  
Since 1 June heating degree days 42  
Since 1 July heating degree days 0  
Cooling Degree Days 8 9  
Month to date cooling degree days 202  
Year to date cooling degree days 429  
Since 1 June cooling degree days 370  
Growing Degree Days 24 (Base 50)    
Moisture  
Dew Point 65 °F    
Average Humidity 80    
Maximum Humidity 100    
Minimum Humidity 55    
Precipitation  
Precipitation 0.02 in 0.12 in 1.07 in (2002)
Month to date precipitation 2.52  
Year to date precipitation 21.09  
Snow  
Snow 0.00 in 0.00 in - ()
Month to date snowfall 0.0  
Since 1 June snowfall 0.0  
Since 1 July snowfall 0.0  
Snow Depth -    
Sea Level Pressure  
Sea Level Pressure 29.76 in    
Wind  
Wind Speed 5 mph (West)    
Max Wind Speed 17 mph    
Max Gust Speed 23 mph    
Visibility 7 miles    
Events Fog , Rain , Thunderstorm    
T = Trace of Precipitation, MM = Missing Value Source: NWS Daily Summary

Daily Weather History Graph

Daily Weather History Graph

Search for Another Location

Airport:

Trip Planner

Search our weather history database for the weather conditions in past years. The results will help you decide how hot, cold, wet, or windy it might be!

Date:

Astronomy

Jul. 23, 2013 Rise Set
Actual Time 6:15 AM EDT 8:54 PM EDT
Civil Twilight 5:43 AM EDT 9:26 PM EDT
Nautical Twilight 5:03 AM EDT 10:06 PM EDT
Astronomical Twilight 4:17 AM EDT 10:51 PM EDT
Moon 9:19 PM EDT 7:23 AM EDT
Length of Visible Light 15h 42m
Length of Day
14h 38m
Full, 99% of the Moon is Illuminated
Jul 23
Full
Jul 29
Last Quarter
Aug 6
New
Aug 14
First Quarter
Aug 20
Full

Hourly Weather History & Observations

Time (EDT) Temp. Heat Index Dew Point Humidity Pressure Visibility Wind Dir Wind Speed Gust Speed Precip Events Conditions
12:07 AM 64.4 °F - 62.6 °F 94% 29.82 in 0.2 mi West 3.5 mph - N/A Fog Fog
12:17 AM 64.4 °F - 64.4 °F 100% 29.82 in 0.5 mi WSW 4.6 mph - N/A Fog Fog
12:31 AM 64.4 °F - 62.6 °F 94% 29.82 in 2.0 mi WSW 4.6 mph - N/A   Scattered Clouds
12:53 AM 64.9 °F - 63.0 °F 93% 29.80 in 2.0 mi Calm Calm - N/A   Clear
1:18 AM 64.4 °F - 62.6 °F 94% 29.81 in 3.0 mi Calm Calm - N/A   Clear
1:53 AM 64.0 °F - 62.1 °F 93% 29.80 in 3.0 mi Calm Calm - N/A   Clear
2:53 AM 64.0 °F - 62.1 °F 93% 29.79 in 4.0 mi Calm Calm - N/A   Clear
3:53 AM 63.0 °F - 61.0 °F 93% 29.78 in 4.0 mi Calm Calm - N/A   Clear
4:53 AM 63.0 °F - 61.0 °F 93% 29.77 in 4.0 mi SSW 3.5 mph - N/A   Clear
5:53 AM 63.0 °F - 61.0 °F 93% 29.77 in 5.0 mi SSW 4.6 mph - 0.01 in   Clear
6:53 AM 64.0 °F - 62.1 °F 93% 29.78 in 4.0 mi SW 4.6 mph - N/A   Clear
7:53 AM 66.9 °F - 64.0 °F 90% 29.78 in 4.0 mi South 3.5 mph - N/A   Clear
8:53 AM 71.1 °F - 66.9 °F 87% 29.76 in 6.0 mi SSW 5.8 mph - N/A   Clear
9:53 AM 75.0 °F - 68.0 °F 79% 29.75 in 10.0 mi SW 4.6 mph - N/A   Clear
10:53 AM 78.1 °F - 69.1 °F 74% 29.76 in 10.0 mi WSW 8.1 mph - N/A   Partly Cloudy
11:53 AM 80.1 °F 83.2 °F 70.0 °F 71% 29.75 in 10.0 mi WSW 6.9 mph - N/A   Partly Cloudy
12:53 PM 82.0 °F 86.3 °F 71.1 °F 69% 29.74 in 10.0 mi WSW 10.4 mph - N/A   Partly Cloudy
1:53 PM 82.9 °F 87.5 °F 71.1 °F 67% 29.71 in 10.0 mi WSW 9.2 mph - N/A   Mostly Cloudy
2:08 PM 84.2 °F 89.6 °F 71.6 °F 66% 29.72 in 10.0 mi SW 12.7 mph 18.4 mph N/A Thunderstorm Mostly Cloudy
2:53 PM 84.9 °F 90.7 °F 72.0 °F 65% 29.68 in 10.0 mi West 11.5 mph 19.6 mph N/A   Mostly Cloudy
3:53 PM 84.9 °F 88.2 °F 68.0 °F 57% 29.69 in 10.0 mi NW 12.7 mph 17.3 mph N/A   Partly Cloudy
4:53 PM 84.9 °F 87.6 °F 66.9 °F 55% 29.70 in 10.0 mi WNW 10.4 mph 17.3 mph N/A   Partly Cloudy
5:53 PM 84.0 °F 86.5 °F 66.9 °F 56% 29.67 in 10.0 mi West 9.2 mph - N/A   Clear
6:53 PM 78.1 °F - 66.9 °F 68% 29.68 in 10.0 mi North 17.3 mph 23.0 mph N/A   Mostly Cloudy
7:53 PM 75.0 °F - 66.9 °F 76% 29.72 in 10.0 mi NNE 11.5 mph 19.6 mph N/A   Overcast
8:05 PM 75.2 °F - 66.2 °F 73% 29.74 in 10.0 mi NNE 8.1 mph - N/A   Mostly Cloudy
8:53 PM 73.0 °F - 68.0 °F 84% 29.73 in 10.0 mi NNE 9.2 mph - 0.01 in Rain Light Rain
9:53 PM 73.0 °F - 66.0 °F 79% 29.76 in 10.0 mi NE 6.9 mph 16.1 mph 0.00 in   Overcast
10:53 PM 72.0 °F - 64.0 °F 76% 29.79 in 10.0 mi NE 12.7 mph 19.6 mph N/A   Overcast
11:24 PM 71.6 °F - 60.8 °F 69% 29.82 in 10.0 mi NNE 13.8 mph 23.0 mph N/A   Overcast
11:53 PM 70.0 °F - 60.1 °F 71% 29.82 in 10.0 mi NNE 10.4 mph - N/A   Overcast